Home > Weather > Esfahãn > Past weeks

Flag for Iran Past Weather in Esfahãn, Iran — Yesterday and Last 2 Weeks

Now
84 °F

Clear.


Feels Like: 81 °F
Forecast: 55 / 94 °F
Wind: 5 mph from Northwest

Location: Esfahan

Current Time: Aug 28, 2016 at 11:43:33 AM

Latest Report: Aug 28, 2016 at 11:00 AM


Visibility: 4 mi

Pressure: 30.21 "Hg (25.28 "Hg at 1576m altitude)

Humidity: 14%

Dew Point: 30 °F

Location of EsfahãnLocation

Past Weather in Esfahãn — Graph

°F

Esfahãn Temperature Yesterday

Maximum temperature yesterday: 95 °F (at 5:00 PM)
Minimum temperature yesterday: 54 °F (at 6:00 AM)
Average temperature yesterday: 76 °F

High & Low Weather Summary for the Past Weeks

 TemperatureHumidityPressure
High99 °F (Aug 14, 5:00 PM)38% (Aug 17, 6:30 AM)30.21 "Hg (Aug 17, 6:30 AM)
Low52 °F (Aug 23, 7:30 AM)7% (Aug 13, 2:30 PM)29.89 "Hg (Aug 14, 7:00 PM)
Average77 °F17%30.07 "Hg
* Reported Aug 13 10:30 AM — Aug 28 10:30 AM, Esfahãn, Weather by CustomWeather, © 2016

Note: Actual official high and low records may vary slightly from our data, if they occured in-between our weather recording intervals... More about our weather records

Advertising

Esfahãn Weather History for the Previous 24 Hours

Scroll right to see more
 ConditionsComfort  
Time TempWeatherWind HumidityBarometerVisibility
10:30 AM
Sun, Aug 28
81 °FHaze.5 mph18%30.21 "Hg3 mi
10:00 AM77 °FHaze.5 mph18%30.21 "Hg3 mi
9:30 AM75 °FHaze.5 mph21%30.21 "Hg3 mi
9:00 AM72 °FHaze.7 mph22%30.21 "Hg2 mi
8:30 AM68 °FHaze.7 mph26%30.21 "Hg1 mi
8:00 AM63 °FHaze.5 mph27%30.21 "Hg3 mi
7:30 AM55 °FClear.7 mph36%30.21 "Hg4 mi
7:00 AM55 °FHaze.7 mph36%30.21 "Hg3 mi
6:30 AM55 °FClear.5 mph33%30.18 "Hg5 mi
6:00 AM57 °FClear.7 mph31%30.18 "Hg10 mi
5:30 AM55 °FClear.No wind33%30.18 "Hg10 mi
5:00 AM55 °FClear.No wind31%30.18 "Hg10 mi
4:30 AM57 °FClear.5 mph25%30.15 "Hg10 mi
4:00 AM61 °FClear.No wind25%30.15 "Hg10 mi
3:30 AM63 °FClear.5 mph24%30.15 "Hg10 mi
3:00 AM63 °FClear.5 mph25%30.15 "Hg10 mi
2:30 AM66 °FClear.5 mph21%30.15 "Hg10 mi
2:00 AM75 °FClear.No wind16%30.15 "Hg10 mi
1:30 AM75 °FClear.7 mph16%30.15 "Hg10 mi
1:00 AM75 °FClear.7 mph16%30.18 "Hg10 mi
12:30 AM75 °FClear.9 mph16%30.18 "Hg10 mi
12:00 AM73 °FClear.7 mph17%30.18 "Hg10 mi
11:30 PM
Sat, Aug 27
70 °FClear.No wind18%30.18 "Hg10 mi
11:00 PM72 °FClear.No wind16%30.18 "Hg10 mi
10:30 PM72 °FClear.5 mph16%30.18 "Hg10 mi
10:00 PM73 °FClear.5 mph14%30.15 "Hg10 mi
9:30 PM79 °FClear.5 mph15%30.15 "Hg10 mi
9:00 PM79 °FSunny.5 mph13%30.15 "Hg10 mi
8:30 PM82 °FPassing clouds.7 mph12%30.12 "HgN/A
8:00 PM86 °FPassing clouds.12 mph11%30.12 "HgN/A
7:30 PM90 °FPassing clouds.16 mph11%30.12 "HgN/A
7:00 PM91 °FPassing clouds.12 mph10%30.12 "HgN/A
6:30 PM93 °FPassing clouds.22 mph9%30.09 "HgN/A
6:00 PM93 °FPassing clouds.12 mph10%30.09 "HgN/A
5:30 PM93 °FPassing clouds.16 mph8%30.09 "HgN/A
5:00 PM95 °FPassing clouds.12 mph9%30.09 "HgN/A
4:30 PM93 °FPassing clouds.9 mph9%30.09 "HgN/A
4:00 PM93 °FPassing clouds.5 mph10%30.09 "HgN/A
3:30 PM93 °FSunny.12 mph10%30.12 "Hg10 mi
3:00 PM93 °FSunny.5 mph9%30.15 "Hg10 mi
2:30 PM93 °FSunny.7 mph10%30.15 "Hg10 mi
2:00 PM93 °FSunny.12 mph9%30.15 "Hg10 mi
1:30 PM93 °FSunny.12 mph9%30.15 "Hg10 mi
1:00 PM91 °FSunny.12 mph9%30.18 "Hg10 mi
12:30 PM88 °FSunny.12 mph10%30.18 "Hg10 mi
12:00 PM88 °FSunny.7 mph10%30.18 "Hg10 mi
11:30 AM86 °FSunny.9 mph11%30.21 "Hg10 mi
11:00 AM82 °FSunny.5 mph13%30.21 "Hg10 mi
Weather by CustomWeather, © 2016

See weather overviewHow to use our weather pages